STARLINK-3936 (52674 NORAD) Tracking and Keplerian Element Data
This shows tracking and keplerian element data for the satellite.
Feedback or suggestion? Click here.
Element | Value |
Catalog | 52674 |
Name | STARLINK-3936 |
Epoch Orbit | 130 |
Epoch Day | 192.91667824 |
Epoch Year | 2022 |
RAAN | 35.4063 |
Inclination | 53.2175 |
Eccentricity | 0.0001788 |
Argument of Perigee | 45.2837 |
Mean Anonmoly | 99.6062 |
Mean Motion | 15.20640275 |
Decay Rate | -0.00724172 |
L1 | 1 52674U 22053U 22192.91667824 -.00724172 00000+0 -34969-1 0 9991 |
L2 | 2 52674 53.2175 35.4063 0001788 45.2837 99.6062 15.20640275 1301 |
Live tracking and technical data element details for STARLINK-3936 (NORAD 52674). STARLINK-3936 can be tracked NOW for your location showing map with azimuth and elevation plus other details from your city location.
Track the satellite on the map from your city or location and see movement details for azimuth, elevation, latitude, longitude, range, height, and movement on the map or in text.
IsCatalogInMostPopularTable: catalog: 52674, numindb: 6
Update: records affected: 1
GetName: 52674 STARLINK-3936
Hit Count: updated at: Sat, 13 Aug 2022 23:52:54 GMT